This is the latest recevied weather packets stored in our database for station/object KE0FIN. If no packets are shown the sender has not sent any weather packets the latest 10 day(s).
| Time | Temp. | Humidity | Pressure | Rain* | Wind** | Luminosity | Snow |
|---|---|---|---|---|---|---|---|
| 1777995689 | 11.67° C | 67% | 1062.8 hPa | 0 mm | - | 71 W/m² | - |
| 1777995386 | 11.67° C | 66% | 1062.8 hPa | 0 mm | - | 65 W/m² | - |
| 1777995084 | 11.11° C | 66% | 1062.6 hPa | 0 mm | - | 110 W/m² | - |
| 1777994780 | 11.11° C | 64% | 1062.5 hPa | 0 mm | - | 92 W/m² | - |
| 1777994476 | 11.11° C | 64% | 1062.6 hPa | 0 mm | - | 77 W/m² | - |
| 1777994171 | 11.11° C | 63% | 1062.5 hPa | 0 mm | - | 75 W/m² | - |
| 1777993869 | 11.11° C | 63% | 1062.4 hPa | 0 mm | - | 90 W/m² | - |
| 1777993565 | 11.11° C | 62% | 1062.4 hPa | 0 mm | - | 124 W/m² | - |
| 1777993261 | 11.11° C | 62% | 1062.3 hPa | 0 mm | - | 110 W/m² | - |
| 1777992957 | 11.67° C | 61% | 1062.5 hPa | 0 mm | - | 74 W/m² | - |
| 1777992656 | 11.67° C | 61% | 1062.6 hPa | 0 mm | - | 79 W/m² | - |
| 1777992354 | 11.11° C | 61% | 1062.5 hPa | 0 mm | - | 103 W/m² | - |
| 1777992051 | 11.11° C | 61% | 1062.6 hPa | 0 mm | - | 43 W/m² | - |
| 1777991748 | 11.11° C | 62% | 1062.6 hPa | 0 mm | - | 79 W/m² | - |
| 1777991445 | 11.11° C | 61% | 1062.5 hPa | 0 mm | - | 66 W/m² | - |
| 1777991142 | 11.11° C | 62% | 1062.3 hPa | 0 mm | - | 42 W/m² | - |
| 1777990839 | 11.11° C | 62% | 1062.1 hPa | 0 mm | - | 51 W/m² | - |
| 1777990537 | 11.11° C | 62% | 1062 hPa | 0 mm | - | 56 W/m² | - |
| 1777989930 | 11.11° C | 63% | 1062.2 hPa | 0 mm | - | 48 W/m² | - |
| 1777989627 | 11.11° C | 63% | 1062.4 hPa | 0 mm | - | 35 W/m² | - |
| 1777989323 | 11.11° C | 63% | 1062 hPa | 0 mm | - | 31 W/m² | - |
| 1777989020 | 11.11° C | 63% | 1061.6 hPa | 0 mm | - | 31 W/m² | - |
| 1777988716 | 11.11° C | 64% | 1061.6 hPa | 0 mm | - | 35 W/m² | - |
| 1777988413 | 11.11° C | 63% | 1061.5 hPa | 0 mm | - | 29 W/m² | - |
| 1777988110 | 11.11° C | 64% | 1061.4 hPa | 0 mm | - | 25 W/m² | - |
* Rain latest hour (hover to see other rain measurements)
** Current wind speed in m/s (hover to see current wind gust speed)